{"data":{"norad_id":57456,"epoch":"2026-09-21T21:57:55.547136Z","epoch_age_seconds":85367,"freshness":"FRESH","line1":"1 57456U 23106E   26264.91522624  .00003941  00000+0  19415-3 0  9999","line2":"2 57456  34.9923 197.7861 0001271 180.1053 179.9660 15.17424144175562","mean_motion":15.17424144,"eccentricity":0.0001271,"inclination_deg":34.9923,"raan_deg":197.7861,"arg_perigee_deg":180.1053,"mean_anomaly_deg":179.966,"bstar":0.00019415,"rev_number":17556,"period_min":94.897659675039,"perigee_km":512.75292213037,"apogee_km":514.5048090134,"semimajor_km":6891.7658655719,"source":"CELESTRAK","updated_at":"2026-09-22T09:00:26.197752Z"}}